Bundaberg Observation History
Time Wind Speed Temp Pressure Rel. Hum Rain
05/09:30pm SSE 8-11 kts 17.5°c 1025.7 hPa 73% 0.0mm
05/09:00pm SSE 7-10 kts 17.5°c 1025.7 hPa 74% 0.0mm
05/08:30pm SSE 6-7 kts 17.3°c 1025.6 hPa 76% 0.0mm
05/08:00pm SE 5-7 kts 17.4°c 1025.4 hPa 76% 0.0mm
05/07:30pm SE 6-8 kts 17.5°c 1025.2 hPa 76% 0.0mm
05/07:00pm SE 8-10 kts 17.8°c 1025.0 hPa 76% 0.0mm
05/06:30pm SE 7-8 kts 17.9°c 1024.7 hPa 78% 0.0mm
05/06:00pm ESE 7-8 kts 17.9°c 1024.2 hPa 75% 0.0mm
05/05:30pm ESE 8-10 kts 18.7°c 1023.9 hPa 69% 0.0mm
05/05:00pm ESE 10-12 kts 19.7°c 1023.6 hPa 62% 0.0mm
05/04:30pm ESE 11-14 kts 20.8°c 1023.3 hPa 59% 0.0mm
05/04:00pm ESE 12-16 kts 21.5°c 1023.3 hPa 57% 0.0mm
05/03:30pm ESE 13-16 kts 21.1°c 1023.3 hPa 56% 0.0mm
05/03:00pm ESE 13-18 kts 22.3°c 1023.4 hPa 52% 0.0mm
05/02:30pm ESE 13-17 kts 21.8°c 1023.5 hPa 56% 0.0mm
05/02:00pm SE 12-17 kts 22.2°c 1023.9 hPa 53% 0.0mm
05/01:30pm SE 12-17 kts 22.0°c 1024.0 hPa 58% 0.0mm
05/01:00pm SE 14-23 kts 21.0°c 1024.4 hPa 62% 0.0mm
05/12:30pm SE 12-18 kts 22.0°c 1024.9 hPa 58% 0.0mm
05/12:00pm SE 14-20 kts 21.5°c 1025.3 hPa 58% 0.0mm
05/11:30am SE 14-18 kts 22.0°c 1025.7 hPa 54% 0.0mm
05/11:00am SE 14-21 kts 21.8°c 1026.2 hPa 57% 0.0mm
05/10:30am SSE 13-20 kts 21.0°c 1026.5 hPa 59% 0.0mm
05/10:00am SSE 11-15 kts 20.2°c 1026.8 hPa 63% 0.0mm
05/09:30am SSE 10-15 kts 19.0°c 1027.0 hPa 65% 0.0mm
05/09:00am SSE 9-14 kts 18.7°c 1026.7 hPa 65% 0.0mm
05/08:30am SSE 9-15 kts 17.1°c 1026.5 hPa 69% 0.0mm
05/08:00am S 7-10 kts 15.4°c 1026.2 hPa 74% 0.0mm
05/07:30am S 6-9 kts 14.6°c 1026.1 hPa 78% 0.0mm
05/07:00am S 6-9 kts 13.4°c 1025.8 hPa 82% 0.0mm
05/06:30am S 6-9 kts 13.2°c 1025.6 hPa 82% 0.0mm
05/06:00am S 7-10 kts 13.6°c 1025.2 hPa 81% 0.0mm
05/05:30am S 7-10 kts 13.6°c 1025.1 hPa 81% 0.0mm
05/05:00am S 7-9 kts 13.4°c 1024.7 hPa 80% 0.0mm
05/04:30am S 7-11 kts 13.8°c 1024.6 hPa 78% 0.0mm
05/04:00am S 8-11 kts 14.1°c 1024.7 hPa 75% 0.0mm
05/03:30am S 6-9 kts 13.9°c 1024.9 hPa 78% 0.0mm
05/03:00am S 7-10 kts 14.2°c 1024.9 hPa 77% 0.0mm
05/02:30am S 7-11 kts 14.1°c 1025.0 hPa 74% 0.0mm
05/02:00am SSE 7-11 kts 14.6°c 1025.1 hPa 72% 0.0mm
05/01:30am S 8-11 kts 14.6°c 1025.2 hPa 74% 0.0mm
05/01:00am S 7-10 kts 14.4°c 1025.6 hPa 76% 0.0mm
05/12:30am S 8-11 kts 14.7°c 1026.0 hPa 77% 0.0mm
05/12:00am S 6-9 kts 14.5°c 1026.3 hPa 77% 0.0mm
Time Wind Speed Temp Pressure Rel. Hum Rain
04/11:30pm S 7-10 kts 15.1°c 1026.5 hPa 74% 0.0mm
04/11:00pm S 8-12 kts 15.6°c 1026.7 hPa 73% 0.0mm
04/10:30pm S 7-9 kts 15.8°c 1026.7 hPa 73% 0.0mm
04/10:00pm S 8-11 kts 16.2°c 1026.9 hPa 72% 0.0mm
04/09:30pm S 8-11 kts 16.3°c 1027.0 hPa 72% 0.0mm
04/09:00pm S 7-11 kts 16.8°c 1026.9 hPa 73% 0.0mm
04/08:30pm S 8-13 kts 17.0°c 1027.0 hPa 76% 0.0mm
04/08:00pm SSE 11-16 kts 16.9°c 1027.0 hPa 77% 0.0mm
04/07:30pm SSE 7-11 kts 17.1°c 1026.6 hPa 73% 0.0mm
04/07:00pm SE 9-12 kts 17.4°c 1026.6 hPa 73% 0.0mm
04/06:30pm SSE 9-11 kts 17.6°c 1026.4 hPa 70% 0.0mm
04/06:00pm SE 10-13 kts 17.9°c 1025.8 hPa 69% 0.0mm
04/05:30pm SE 14-19 kts 18.9°c 1025.5 hPa 65% 0.0mm
04/05:00pm SE 13-17 kts 19.4°c 1025.1 hPa 59% 0.0mm
04/04:30pm SSE 13-19 kts 20.1°c 1024.8 hPa 56% 0.0mm
04/04:00pm SE 14-17 kts 20.5°c 1024.4 hPa 53% 0.0mm
04/03:30pm SE 16-21 kts 21.0°c 1024.4 hPa 53% 0.0mm
04/03:00pm SE 16-22 kts 21.1°c 1024.4 hPa 54% 0.0mm
04/02:30pm SE 13-19 kts 21.2°c 1024.5 hPa 54% 0.0mm
04/02:00pm SSE 16-22 kts 21.2°c 1024.6 hPa 52% 0.0mm
04/01:30pm SE 18-25 kts 21.8°c 1024.4 hPa 49% 0.0mm
04/01:00pm SE 17-22 kts 21.8°c 1024.5 hPa 49% 0.0mm
04/12:30pm SE 17-23 kts 22.3°c 1024.8 hPa 51% 0.0mm
04/12:00pm SE 16-22 kts 23.2°c 1025.2 hPa 49% 0.0mm
04/11:30am SSE 14-20 kts 22.4°c 1025.6 hPa 50% 0.0mm
04/11:00am SE 16-22 kts 21.1°c 1025.7 hPa 51% 0.0mm
04/10:30am SE 17-23 kts 21.1°c 1025.8 hPa 52% 0.0mm
04/10:00am SE 15-21 kts 20.3°c 1025.5 hPa 53% 0.0mm
04/09:30am SSE 15-21 kts 19.3°c 1025.8 hPa 55% 0.0mm
04/09:00am SSE 13-18 kts 17.8°c 1025.8 hPa 56% 0.0mm
04/08:30am SSE 12-16 kts 16.4°c 1025.7 hPa 58% 0.0mm
04/08:00am S 8-11 kts 14.9°c 1025.4 hPa 62% 0.0mm
04/07:30am S 8-10 kts 13.1°c 1025.0 hPa 68% 0.0mm
04/07:00am S 6-8 kts 12.1°c 1024.6 hPa 72% 0.0mm
04/06:30am SSW 6-8 kts 11.8°c 1024.3 hPa 72% 0.0mm
04/06:00am S 7-9 kts 12.0°c 1023.9 hPa 71% 0.0mm
04/05:30am S 7-9 kts 11.9°c 1023.7 hPa 71% 0.0mm
04/05:00am SSW 7-10 kts 12.1°c 1023.3 hPa 69% 0.0mm
04/04:30am SSW 6-9 kts 11.9°c 1023.0 hPa 68% 0.0mm
04/04:00am SSW 7-9 kts 11.6°c 1022.9 hPa 67% 0.0mm
04/03:30am SSW 7-9 kts 11.5°c 1023.0 hPa 67% 0.0mm
04/03:00am SSW 7-9 kts 12.1°c 1023.0 hPa 65% 0.0mm
04/02:30am SSW 6-8 kts 12.0°c 1023.3 hPa 67% 0.0mm
04/02:00am SSW 7-9 kts 12.5°c 1023.1 hPa 65% 0.0mm
04/01:30am SSW 7-9 kts 12.3°c 1023.4 hPa 69% 0.0mm
04/01:00am SSW 6-9 kts 11.7°c 1023.6 hPa 72% 0.0mm
04/12:30am SSW 6-7 kts 11.7°c 1023.7 hPa 72% 0.0mm
04/12:00am SSW 5-7 kts 11.3°c 1024.1 hPa 75% 0.0mm
Time Wind Speed Temp Pressure Rel. Hum Rain
03/11:30pm SSW 5-7 kts 11.6°c 1023.9 hPa 75% 0.0mm
03/11:00pm SSW 5-7 kts 11.7°c 1024.0 hPa 74% 0.0mm
03/10:30pm SSW 6-8 kts 11.7°c 1024.0 hPa 76% 0.0mm
03/10:00pm S 7-8 kts 11.6°c 1023.7 hPa 75% 0.0mm
03/09:30pm S 6-9 kts 12.0°c 1023.4 hPa 74% 0.0mm
03/09:00pm S 7-9 kts 12.4°c 1023.2 hPa 73% 0.0mm
03/08:30pm S 7-10 kts 14.0°c 1023.1 hPa 71% 0.0mm
03/08:00pm S 5-8 kts 12.8°c 1022.8 hPa 71% 0.0mm
03/07:30pm SSE 4-5 kts 12.9°c 1022.5 hPa 67% 0.0mm
03/07:00pm ESE 2-4 kts 15.0°c 1021.9 hPa 64% 0.0mm
03/06:30pm E 1-4 kts 15.6°c 1021.3 hPa 59% 0.0mm
03/06:00pm ESE 1-3 kts 16.1°c 1020.9 hPa 53% 0.0mm
03/05:30pm E 5-6 kts 16.8°c 1020.5 hPa 49% 0.0mm
03/05:00pm WSW 4-6 kts 20.0°c 1020.1 hPa 30% 0.0mm
03/04:30pm SW 6-9 kts 21.5°c 1019.7 hPa 26% 0.0mm
03/04:00pm SSW 7-10 kts 22.1°c 1019.4 hPa 25% 0.0mm
03/03:30pm SSW 7-11 kts 22.5°c 1019.2 hPa 24% 0.0mm
03/03:00pm SSW 7-11 kts 22.5°c 1019.1 hPa 24% 0.0mm
03/02:30pm SSW 8-13 kts 21.8°c 1019.2 hPa 23% 0.0mm
03/02:00pm SW 7-12 kts 21.4°c 1019.2 hPa 24% 0.0mm
03/01:30pm SSW 8-13 kts 21.5°c 1019.4 hPa 26% 0.0mm
03/01:00pm SW 9-12 kts 20.8°c 1019.6 hPa 27% 0.0mm
03/12:30pm SSW 9-15 kts 20.2°c 1020.3 hPa 29% 0.0mm
03/12:00pm SSW 11-15 kts 18.6°c 1020.8 hPa 30% 0.0mm
03/11:30am SSW 10-14 kts 18.8°c 1021.3 hPa 32% 0.0mm
03/11:00am SW 11-17 kts 17.9°c 1021.8 hPa 33% 0.0mm
03/10:30am SW 11-14 kts 17.3°c 1022.2 hPa 34% 0.0mm
03/10:00am SW 11-16 kts 16.3°c 1022.4 hPa 36% 0.0mm
03/09:30am SSW 11-15 kts 15.5°c 1022.6 hPa 38% 0.0mm
03/09:00am SW 12-18 kts 14.7°c 1022.6 hPa 40% 0.0mm
03/08:30am SW 11-17 kts 13.8°c 1022.5 hPa 43% 0.0mm
03/08:00am SW 13-17 kts 12.8°c 1022.2 hPa 45% 0.0mm
03/07:30am SW 13-18 kts 11.8°c 1021.9 hPa 47% 0.0mm
03/07:00am SW 9-13 kts 11.0°c 1021.8 hPa 50% 0.0mm
03/06:30am SW 8-11 kts 9.9°c 1021.5 hPa 53% 0.0mm
03/06:00am SW 1-4 kts 9.8°c 1021.4 hPa 52% 0.0mm
03/05:30am SW 8-12 kts 10.5°c 1021.0 hPa 50% 0.0mm
03/05:00am SW 6-8 kts 9.8°c 1021.0 hPa 50% 0.0mm
03/04:30am SW 8-13 kts 10.6°c 1020.7 hPa 48% 0.0mm
03/04:00am SW 9-10 kts 9.6°c 1020.6 hPa 51% 0.0mm
03/03:30am S 5-6 kts 9.8°c 1020.9 hPa 51% 0.0mm
03/03:00am SSW 7-9 kts 9.9°c 1020.9 hPa 50% 0.0mm
03/02:30am SSW 6-10 kts 10.6°c 1021.2 hPa 47% 0.0mm
03/02:00am SW 8-11 kts 10.7°c 1021.4 hPa 48% 0.0mm
03/01:30am WSW 4-6 kts 10.0°c 1021.8 hPa 50% 0.0mm
03/01:00am WSW 5-9 kts 10.2°c 1021.8 hPa 49% 0.0mm
03/12:30am SW 8-12 kts 11.3°c 1021.8 hPa 44% 0.0mm
03/12:00am SSW 8-12 kts 11.6°c 1021.9 hPa 42% 0.0mm